Home > Weather > Ilulissat > Past weeks

Flag for Greenland Past Weather in Ilulissat, Greenland — Yesterday and Last 2 Weeks

Now
52 °F

Passing clouds.


Feels Like: 51 °F
Forecast: 46 / 54 °F
Wind: 5 mph from Northwest

Location: Jacobshavn Lufthavn

Current Time: Jul 30, 2016 at 4:53:34 PM

Latest Report: Jul 30, 2016 at 3:50 PM


Visibility: N/A

Pressure: 30.12 "Hg

Humidity: 54%

Dew Point: 36 °F

Location of IlulissatLocation

Past Weather in Ilulissat — Graph

°F

Ilulissat Temperature Yesterday

Maximum temperature yesterday: 54 °F (at 6:50 PM)
Minimum temperature yesterday: 43 °F (at 4:50 AM)
Average temperature yesterday: 48 °F

High & Low Weather Summary for the Past Weeks

 TemperatureHumidityPressure
High66 °F (Jul 16, 4:50 PM)94% (Jul 19, 9:50 PM)30.18 "Hg (Jul 19, 9:50 PM)
Low41 °F (Jul 26, 3:50 AM)25% (Jul 15, 3:50 PM)29.53 "Hg (Jul 16, 2:50 PM)
Average51 °F61%29.97 "Hg
* Reported Jul 15 3:50 PM — Jul 30 3:50 PM, Ilulissat, Weather by CustomWeather, © 2016

Note: Actual official high and low records may vary slightly from our data, if they occured in-between our weather recording intervals... More about our weather records

Advertising

Ilulissat Weather History for the Previous 24 Hours

Scroll right to see more
 ConditionsComfort  
Time TempWeatherWind HumidityBarometerVisibility
3:50 PM
Sat, Jul 30
52 °FPassing clouds.5 mph54%30.12 "HgN/A
2:50 PM52 °FPassing clouds.5 mph50%30.12 "HgN/A
1:50 PM52 °FScattered clouds.5 mph54%30.15 "HgN/A
12:50 PM52 °FScattered clouds.6 mph50%30.15 "HgN/A
11:50 AM52 °FScattered clouds.5 mph50%30.15 "HgN/A
10:50 AM52 °FScattered clouds.6 mph50%30.15 "HgN/A
9:50 AM52 °FPassing clouds.3 mph50%30.15 "HgN/A
8:50 AM50 °FPassing clouds.3 mph54%30.15 "HgN/A
7:50 AM48 °FPassing clouds.3 mph58%30.15 "HgN/A
6:50 AM50 °FPassing clouds.No wind58%30.15 "HgN/A
5:50 AM46 °FCool.No wind66%30.15 "HgN/A
4:50 AM46 °FCool.No wind71%30.15 "HgN/A
3:50 AM45 °FQuite cool.No wind76%30.15 "HgN/A
2:50 AM43 °FQuite cool.No wind81%30.15 "HgN/A
1:50 AM46 °FCool.No wind66%30.15 "HgN/A
12:50 AM46 °FCool.No wind62%30.15 "HgN/A
11:50 PM
Fri, Jul 29
48 °FCool.No wind62%30.15 "HgN/A
10:50 PM52 °FCool.No wind50%30.15 "HgN/A
9:50 PM52 °FCool.No wind47%30.15 "HgN/A
8:50 PM52 °FCool.3 mph47%30.15 "HgN/A
7:50 PM54 °FScattered clouds.3 mph41%30.15 "HgN/A
6:50 PM54 °FScattered clouds.6 mph41%30.15 "HgN/A
5:50 PM52 °FScattered clouds.5 mph47%30.15 "HgN/A
4:50 PM52 °FScattered clouds.5 mph50%30.15 "HgN/A
Weather by CustomWeather, © 2016

See weather overviewHow to use our weather pages